| time (UTC) | temp F | wind direction | speed knots | gust knots | rain 1hr in | rain 24hr in | rain mn in | humidity % | barometer mb |
| 20260510214005 | 48 | 356 | 5.2 | 12.2 | 0.00 | 0.00 | 0.00 | 48 | 1021.5 |
| 20260510213211 | 46 | 312 | 1.7 | 5.2 | 0.00 | 0.00 | 0.00 | 48 | 1021.5 |
| 20260510213005 | 46 | 32 | 1.7 | 11.3 | 0.00 | 0.00 | 0.00 | 48 | 1021.5 |
| 20260510212006 | 48 | 278 | 2.6 | 8.7 | 0.00 | 0.00 | 0.00 | 48 | 1021.4 |
| 20260510211711 | 47 | 16 | 2.6 | 5.2 | 0.00 | 0.00 | 0.00 | 50 | 1021.2 |
| 20260510211005 | 46 | 23 | 2.6 | 10.4 | 0.00 | 0.00 | 0.00 | 51 | 1021.2 |
| 20260510210211 | 46 | 348 | 4.3 | 10.4 | 0.00 | 0.00 | 0.00 | 55 | 1021.1 |
| 20260510210005 | 46 | 309 | 1.7 | 8.7 | 0.00 | 0.00 | 0.00 | 53 | 1021.1 |
| 20260510205006 | 47 | 43 | 2.6 | 12.2 | 0.00 | 0.00 | 0.00 | 50 | 1021.0 |
| 20260510204710 | 47 | 346 | 4.3 | 6.1 | 0.00 | 0.00 | 0.00 | 49 | 1021.1 |
| 20260510204005 | 47 | 13 | 5.2 | 13.0 | 0.00 | 0.00 | 0.00 | 52 | 1021.0 |
| 20260510203210 | 48 | 327 | 2.6 | 8.7 | 0.00 | 0.00 | 0.00 | 47 | 1020.8 |
| 20260510203005 | 48 | 289 | 4.3 | 10.4 | 0.00 | 0.00 | 0.00 | 49 | 1020.9 |
| 20260510201711 | 48 | 15 | 5.2 | 7.0 | 0.00 | 0.00 | 0.00 | 48 | 1020.9 |
| 20260510201005 | 47 | 331 | 2.6 | 10.4 | 0.00 | 0.00 | 0.00 | 49 | 1020.8 |
| 20260510200210 | 47 | 352 | 4.3 | 7.0 | 0.00 | 0.00 | 0.00 | 49 | 1020.9 |
| 20260510200005 | 47 | 339 | 2.6 | 10.4 | 0.00 | 0.00 | 0.00 | 49 | 1020.9 |
| 20260510195006 | 47 | 69 | 3.5 | 8.7 | 0.00 | 0.00 | 0.00 | 48 | 1020.7 |
| 20260510194710 | 47 | 35 | 2.6 | 7.0 | 0.00 | 0.00 | 0.00 | 50 | 1020.7 |
| 20260510194005 | 47 | 293 | 6.1 | 12.2 | 0.00 | 0.00 | 0.00 | 48 | 1020.8 |
| 20260510193210 | 46 | 19 | 5.2 | 11.3 | 0.00 | 0.00 | 0.00 | 50 | 1020.8 |
| 20260510193006 | 46 | 328 | 3.5 | 11.3 | 0.00 | 0.00 | 0.00 | 49 | 1020.7 |
| 20260510192005 | 46 | 106 | 2.6 | 12.2 | 0.00 | 0.00 | 0.00 | 51 | 1020.7 |
| 20260510191710 | 46 | 49 | 4.3 | 7.0 | 0.00 | 0.00 | 0.00 | 50 | 1020.8 |
| 20260510191005 | 46 | 340 | 5.2 | 10.4 | 0.00 | 0.00 | 0.00 | 51 | 1020.6 |
| 20260510190211 | 46 | 308 | 1.7 | 2.6 | 0.00 | 0.00 | 0.00 | 51 | 1020.6 |
| 20260510190005 | 46 | 39 | 3.5 | 13.9 | 0.00 | 0.00 | 0.00 | 50 | 1020.5 |
| 20260510184710 | 46 | 348 | 5.2 | 10.4 | 0.00 | 0.00 | 0.00 | 53 | 1020.5 |
| 20260510183210 | 46 | 335 | 2.6 | 7.8 | 0.00 | 0.00 | 0.00 | 52 | 1020.4 |
| 20260510183005 | 46 | 326 | 4.3 | 11.3 | 0.00 | 0.00 | 0.00 | 52 | 1020.4 |
| 20260510182005 | 45 | 293 | 5.2 | 11.3 | 0.00 | 0.00 | 0.00 | 53 | 1020.2 |
| 20260510181711 | 45 | 272 | 1.7 | 7.0 | 0.00 | 0.00 | 0.00 | 53 | 1020.2 |
| 20260510181005 | 45 | 315 | 3.5 | 11.3 | 0.00 | 0.00 | 0.00 | 52 | 1020.1 |
| 20260510180209 | 46 | 285 | 6.1 | 8.7 | 0.00 | 0.00 | 0.00 | 50 | 1020.1 |
| 20260510180005 | 46 | 330 | 3.5 | 10.4 | 0.00 | 0.00 | 0.00 | 51 | 1019.9 |
| 20260510174710 | 45 | 354 | 5.2 | 10.4 | 0.00 | 0.00 | 0.00 | 52 | 1020.0 |
| 20260510173211 | 45 | 283 | 7.8 | 13.9 | 0.00 | 0.00 | 0.00 | 52 | 1019.7 |
| 20260510173005 | 45 | 249 | 4.3 | 13.0 | 0.00 | 0.00 | 0.00 | 54 | 1019.7 |
| 20260510172005 | 45 | 333 | 3.5 | 17.4 | 0.00 | 0.00 | 0.00 | 54 | 1019.8 |
| 20260510171711 | 45 | 325 | 6.1 | 14.8 | 0.00 | 0.00 | 0.00 | 53 | 1019.7 |
| 20260510170210 | 45 | 283 | 2.6 | 7.0 | 0.00 | 0.00 | 0.00 | 54 | 1019.7 |
| 20260510170005 | 45 | 299 | 5.2 | 7.8 | 0.00 | 0.00 | 0.00 | 52 | 1019.6 |
| 20260510165005 | 45 | 337 | 5.2 | 14.8 | 0.00 | 0.00 | 0.00 | 55 | 1019.6 |
| 20260510164711 | 45 | 288 | 6.1 | 7.0 | 0.00 | 0.00 | 0.00 | 55 | 1019.6 |
| 20260510164005 | 45 | 270 | 1.7 | 11.3 | 0.00 | 0.00 | 0.00 | 54 | 1019.5 |
| 20260510163210 | 45 | 19 | 4.3 | 7.0 | 0.00 | 0.00 | 0.00 | 54 | 1019.4 |
| 20260510163005 | 45 | 302 | 2.6 | 10.4 | 0.00 | 0.00 | 0.00 | 54 | 1019.4 |
| 20260510162005 | 45 | 272 | 0.9 | 10.4 | 0.00 | 0.00 | 0.00 | 56 | 1019.2 |
| 20260510161711 | 45 | 302 | 4.3 | 10.4 | 0.00 | 0.00 | 0.00 | 54 | 1019.1 |
| 20260510161005 | 44 | 271 | 6.1 | 11.3 | 0.00 | 0.00 | 0.00 | 52 | 1019.2 |
| 20260510160211 | 45 | 324 | 1.7 | 10.4 | 0.00 | 0.00 | 0.00 | 54 | 1019.1 |
| 20260510160006 | 45 | 52 | 2.6 | 10.4 | 0.00 | 0.00 | 0.00 | 53 | 1019.1 |
| 20260510154709 | 44 | 280 | 7.0 | 7.8 | 0.00 | 0.00 | 0.00 | 56 | 1019.1 |
| 20260510154005 | 43 | 259 | 1.7 | 13.0 | 0.00 | 0.00 | 0.00 | 57 | 1018.9 |
| 20260510153210 | 43 | 268 | 4.3 | 11.3 | 0.00 | 0.00 | 0.00 | 56 | 1018.8 |
| 20260510153005 | 43 | 339 | 5.2 | 14.8 | 0.00 | 0.00 | 0.00 | 56 | 1018.8 |
| 20260510152005 | 43 | 268 | 5.2 | 13.0 | 0.00 | 0.00 | 0.00 | 58 | 1018.7 |
| 20260510151709 | 43 | 271 | 2.6 | 6.1 | 0.00 | 0.00 | 0.00 | 57 | 1018.7 |
| 20260510151004 | 43 | 256 | 2.6 | 13.0 | 0.00 | 0.00 | 0.00 | 56 | 1018.4 |
| 20260510150210 | 43 | 315 | 6.1 | 13.0 | 0.00 | 0.00 | 0.00 | 55 | 1018.4 |
| 20260510150005 | 43 | 13 | 4.3 | 11.3 | 0.00 | 0.00 | 0.00 | 57 | 1018.4 |
| 20260510145004 | 42 | 281 | 4.3 | 18.2 | 0.00 | 0.00 | 0.00 | 54 | 1018.4 |
| 20260510144710 | 43 | 296 | 10.4 | 15.6 | 0.00 | 0.00 | 0.00 | 54 | 1018.3 |
| 20260510144005 | 43 | 297 | 4.3 | 12.2 | 0.00 | 0.00 | 0.00 | 55 | 1018.2 |
| 20260510143210 | 43 | 307 | 4.3 | 10.4 | 0.00 | 0.00 | 0.00 | 58 | 1018.2 |
| 20260510143006 | 42 | 357 | 2.6 | 12.2 | 0.00 | 0.00 | 0.00 | 58 | 1018.2 |
| 20260510141710 | 42 | 290 | 4.3 | 6.1 | 0.00 | 0.00 | 0.00 | 59 | 1018.1 |
| 20260510140210 | 41 | 265 | 1.7 | 6.1 | 0.00 | 0.00 | 0.00 | 61 | 1018.0 |
| 20260510140005 | 41 | 324 | 6.1 | 14.8 | 0.00 | 0.00 | 0.00 | 60 | 1018.0 |
| 20260510135005 | 41 | 278 | 7.0 | 13.9 | 0.00 | 0.00 | 0.00 | 62 | 1018.0 |
| 20260510134709 | 41 | 257 | 6.1 | 8.7 | 0.00 | 0.00 | 0.00 | 61 | 1018.0 |
| 20260510134005 | 41 | 301 | 4.3 | 10.4 | 0.00 | 0.00 | 0.00 | 67 | 1017.8 |
| 20260510133210 | 41 | 321 | 2.6 | 10.4 | 0.00 | 0.00 | 0.00 | 68 | 1017.8 |
| 20260510133004 | 41 | 329 | 4.3 | 10.4 | 0.00 | 0.00 | 0.00 | 70 | 1017.8 |
| 20260510132005 | 41 | 272 | 1.7 | 10.4 | 0.00 | 0.00 | 0.00 | 70 | 1017.8 |
| 20260510131710 | 40 | 278 | 1.7 | 8.7 | 0.00 | 0.00 | 0.00 | 70 | 1017.8 |
| 20260510131005 | 40 | 272 | 6.1 | 12.2 | 0.00 | 0.00 | 0.00 | 71 | 1017.7 |
| 20260510130211 | 40 | 253 | 4.3 | 7.0 | 0.00 | 0.00 | 0.00 | 72 | 1017.7 |
| 20260510130004 | 40 | 256 | 1.7 | 11.3 | 0.00 | 0.00 | 0.00 | 72 | 1017.7 |
| 20260510125004 | 40 | 257 | 3.5 | 11.3 | 0.00 | 0.00 | 0.00 | 72 | 1017.6 |
| 20260510124711 | 40 | 267 | 5.2 | 6.1 | 0.00 | 0.00 | 0.00 | 73 | 1017.5 |
| 20260510123210 | 39 | 320 | 2.6 | 5.2 | 0.00 | 0.00 | 0.00 | 73 | 1017.2 |
| 20260510123005 | 39 | 311 | 1.7 | 7.8 | 0.00 | 0.00 | 0.00 | 73 | 1017.1 |
| 20260510122005 | 39 | 247 | 3.5 | 10.4 | 0.00 | 0.00 | 0.00 | 73 | 1017.0 |
| 20260510121710 | 39 | 295 | 5.2 | 7.0 | 0.00 | 0.00 | 0.00 | 72 | 1017.0 |
| 20260510120211 | 39 | 259 | 5.2 | 8.7 | 0.00 | 0.00 | 0.00 | 73 | 1016.9 |
| 20260510120004 | 39 | 291 | 4.3 | 13.0 | 0.00 | 0.00 | 0.00 | 74 | 1016.9 |
| 20260510115005 | 39 | 286 | 5.2 | 8.7 | 0.00 | 0.00 | 0.00 | 74 | 1016.9 |
| 20260510114711 | 39 | 260 | 4.3 | 6.1 | 0.00 | 0.00 | 0.00 | 74 | 1016.8 |
| 20260510114004 | 38 | 315 | 5.2 | 8.7 | 0.00 | 0.00 | 0.00 | 75 | 1016.7 |
| 20260510113210 | 38 | 275 | 5.2 | 8.7 | 0.00 | 0.00 | 0.00 | 74 | 1016.6 |
| 20260510113005 | 38 | 267 | 5.2 | 8.7 | 0.00 | 0.00 | 0.00 | 74 | 1016.6 |
| 20260510112005 | 38 | 267 | 4.3 | 7.8 | 0.00 | 0.00 | 0.00 | 74 | 1016.3 |
| 20260510111710 | 38 | 266 | 4.3 | 6.1 | 0.00 | 0.00 | 0.00 | 74 | 1016.3 |
| 20260510111005 | 38 | 275 | 3.5 | 8.7 | 0.00 | 0.00 | 0.00 | 74 | 1016.2 |
| 20260510110210 | 38 | 265 | 5.2 | 7.8 | 0.00 | 0.00 | 0.00 | 74 | 1016.2 |
| 20260510110005 | 38 | 263 | 3.5 | 7.0 | 0.00 | 0.00 | 0.00 | 73 | 1016.2 |
| 20260510105005 | 38 | 262 | 4.3 | 7.8 | 0.00 | 0.00 | 0.00 | 73 | 1016.1 |
| 20260510104710 | 38 | 259 | 2.6 | 5.2 | 0.00 | 0.00 | 0.00 | 72 | 1016.1 |
| 20260510103211 | 38 | 268 | 5.2 | 7.0 | 0.00 | 0.00 | 0.00 | 72 | 1015.7 |
| 20260510103005 | 38 | 270 | 2.6 | 7.8 | 0.00 | 0.00 | 0.00 | 72 | 1015.7 |
| 20260510102005 | 38 | 269 | 1.7 | 7.0 | 0.00 | 0.00 | 0.00 | 70 | 1015.5 |
| 20260510101710 | 38 | 249 | 1.7 | 2.6 | 0.00 | 0.00 | 0.00 | 69 | 1015.4 |
| 20260510101005 | 38 | 253 | 3.5 | 7.0 | 0.00 | 0.00 | 0.00 | 69 | 1015.5 |
| 20260510100210 | 39 | 255 | 2.6 | 7.0 | 0.00 | 0.00 | 0.00 | 70 | 1015.2 |
| 20260510100004 | 39 | 270 | 3.5 | 6.1 | 0.00 | 0.00 | 0.00 | 70 | 1015.2 |
| 20260510095005 | 39 | 263 | 3.5 | 5.2 | 0.00 | 0.00 | 0.00 | 68 | 1015.2 |
| 20260510094710 | 39 | 251 | 2.6 | 5.2 | 0.00 | 0.00 | 0.00 | 68 | 1015.0 |
| 20260510094004 | 39 | 274 | 3.5 | 6.1 | 0.00 | 0.00 | 0.00 | 68 | 1015.1 |
| 20260510093210 | 39 | 256 | 2.6 | 2.6 | 0.00 | 0.00 | 0.00 | 67 | 1015.1 |
| 20260510093005 | 39 | 252 | 2.6 | 7.0 | 0.00 | 0.00 | 0.00 | 66 | 1015.1 |
| 20260510091710 | 39 | 265 | 2.6 | 5.2 | 0.00 | 0.00 | 0.00 | 68 | 1014.9 |
| 20260510091004 | 39 | 261 | 1.7 | 6.1 | 0.00 | 0.00 | 0.00 | 67 | 1014.8 |
| 20260510090210 | 39 | 260 | 2.6 | 2.6 | 0.00 | 0.00 | 0.00 | 67 | 1014.8 |
| 20260510090005 | 39 | 260 | 2.6 | 4.3 | 0.00 | 0.00 | 0.00 | 68 | 1014.8 |
| 20260510084709 | 39 | 255 | 2.6 | 4.3 | 0.00 | 0.00 | 0.00 | 68 | 1014.6 |
| 20260510084004 | 39 | 257 | 2.6 | 4.3 | 0.00 | 0.00 | 0.00 | 70 | 1014.5 |
| 20260510083210 | 39 | 260 | 2.6 | 4.3 | 0.00 | 0.00 | 0.00 | 66 | 1014.4 |
| 20260510083004 | 39 | 257 | 2.6 | 5.2 | 0.00 | 0.00 | 0.00 | 66 | 1014.3 |
| 20260510082005 | 40 | 269 | 2.6 | 4.3 | 0.00 | 0.00 | 0.00 | 67 | 1014.3 |
| 20260510081710 | 40 | 258 | 2.6 | 2.6 | 0.00 | 0.00 | 0.00 | 67 | 1014.3 |
| 20260510081005 | 40 | 266 | 2.6 | 4.3 | 0.00 | 0.00 | 0.00 | 66 | 1014.2 |
| 20260510080209 | 41 | 264 | 2.6 | 4.3 | 0.00 | 0.00 | 0.00 | 66 | 1014.1 |
| 20260510080004 | 41 | 257 | 3.5 | 5.2 | 0.00 | 0.00 | 0.00 | 66 | 1014.1 |
| 20260510074709 | 41 | 273 | 2.6 | 5.2 | 0.00 | 0.00 | 0.00 | 67 | 1014.1 |
| 20260510074005 | 41 | 267 | 1.7 | 5.2 | 0.00 | 0.00 | 0.00 | 65 | 1014.0 |
| 20260510073210 | 41 | 263 | 1.7 | 2.6 | 0.00 | 0.00 | 0.00 | 64 | 1014.0 |
| 20260510073005 | 41 | 260 | 1.7 | 6.1 | 0.00 | 0.00 | 0.00 | 65 | 1014.0 |
| 20260510072004 | 40 | 259 | 2.6 | 5.2 | 0.00 | 0.00 | 0.00 | 66 | 1014.1 |
| 20260510071709 | 40 | 270 | 2.6 | 5.2 | 0.00 | 0.00 | 0.00 | 68 | 1014.0 |
| 20260510071004 | 40 | 255 | 2.6 | 4.3 | 0.00 | 0.00 | 0.00 | 68 | 1014.0 |
| 20260510070210 | 39 | 257 | 2.6 | 2.6 | 0.00 | 0.00 | 0.00 | 69 | 1014.0 |
| 20260510065005 | 39 | 257 | 2.6 | 2.6 | 0.00 | 0.00 | 0.00 | 75 | 1013.9 |
| 20260510064709 | 39 | 257 | 1.7 | 2.6 | 0.00 | 0.00 | 0.00 | 76 | 1013.8 |
| 20260510064004 | 39 | 256 | 1.7 | 4.3 | 0.00 | 0.00 | 0.00 | 75 | 1013.9 |
| 20260510063209 | 38 | 259 | 0.9 | 2.6 | 0.00 | 0.00 | 0.00 | 74 | 1013.8 |
| 20260510062005 | 38 | 262 | 1.7 | 2.6 | 0.00 | 0.00 | 0.00 | 74 | 1013.8 |
| 20260510061710 | 38 | 263 | 0.9 | 1.7 | 0.00 | 0.00 | 0.00 | 73 | 1013.8 |
| 20260510061004 | 38 | 263 | 1.7 | 2.6 | 0.00 | 0.00 | 0.00 | 69 | 1013.8 |
| 20260510060211 | 39 | 285 | 0.9 | 1.7 | 0.00 | 0.00 | 0.00 | 64 | 1013.7 |
| 20260510060006 | 39 | 284 | 1.7 | 2.6 | 0.00 | 0.00 | 0.00 | 64 | 1013.6 |
| 20260510055005 | 39 | 268 | 0.9 | 2.6 | 0.00 | 0.00 | 0.00 | 67 | 1013.5 |
| 20260510054710 | 39 | 290 | 0.9 | 2.6 | 0.00 | 0.00 | 0.00 | 68 | 1013.5 |
| 20260510054004 | 40 | 274 | 0.0 | 2.6 | 0.00 | 0.00 | 0.00 | 65 | 1013.4 |
| 20260510053210 | 40 | 286 | 0.9 | 1.7 | 0.00 | 0.00 | 0.00 | 68 | 1013.5 |
| 20260510053005 | 40 | 307 | 1.7 | 2.6 | 0.00 | 0.00 | 0.00 | 70 | 1013.5 |
| 20260510052005 | 40 | 284 | 2.6 | 5.2 | 0.00 | 0.00 | 0.00 | 67 | 1013.5 |
| 20260510051709 | 40 | 255 | 1.7 | 2.6 | 0.00 | 0.00 | 0.00 | 68 | 1013.5 |
| 20260510051005 | 40 | 258 | 2.6 | 6.1 | 0.00 | 0.00 | 0.00 | 67 | 1013.5 |
| 20260510050209 | 40 | 250 | 1.7 | 2.6 | 0.00 | 0.00 | 0.00 | 69 | 1013.5 |
| 20260510050005 | 40 | 243 | 2.6 | 5.2 | 0.00 | 0.00 | 0.00 | 71 | 1013.5 |
| 20260510045005 | 40 | 263 | 1.7 | 2.6 | 0.00 | 0.00 | 0.00 | 70 | 1013.4 |
| 20260510044710 | 40 | 258 | 1.7 | 2.6 | 0.00 | 0.00 | 0.00 | 68 | 1013.5 |
| 20260510044005 | 40 | 256 | 1.7 | 2.6 | 0.00 | 0.00 | 0.00 | 68 | 1013.4 |
| 20260510043209 | 40 | 269 | 1.7 | 2.6 | 0.00 | 0.00 | 0.00 | 66 | 1013.3 |
| 20260510043004 | 41 | 270 | 1.7 | 2.6 | 0.00 | 0.00 | 0.00 | 66 | 1013.4 |
| 20260510041710 | 42 | 285 | 0.9 | 2.6 | 0.00 | 0.00 | 0.00 | 57 | 1013.3 |
| 20260510040210 | 42 | 265 | 0.9 | 1.7 | 0.00 | 0.00 | 0.00 | 58 | 1013.1 |
| 20260510040004 | 42 | 265 | 0.9 | 2.6 | 0.00 | 0.00 | 0.00 | 57 | 1013.1 |
| 20260510035004 | 43 | 268 | 1.7 | 2.6 | 0.00 | 0.00 | 0.00 | 60 | 1013.1 |
| 20260510034710 | 43 | 267 | 0.9 | 2.6 | 0.00 | 0.00 | 0.00 | 59 | 1013.0 |
| 20260510034005 | 43 | 285 | 0.9 | 5.2 | 0.00 | 0.00 | 0.00 | 55 | 1012.9 |
| 20260510033209 | 43 | 272 | 1.7 | 2.6 | 0.00 | 0.00 | 0.00 | 55 | 1012.9 |
| 20260510033004 | 43 | 279 | 0.9 | 2.6 | 0.00 | 0.00 | 0.00 | 55 | 1012.9 |
| 20260510032005 | 44 | 310 | 0.9 | 2.6 | 0.00 | 0.00 | 0.00 | 53 | 1012.9 |
| 20260510031711 | 44 | 271 | 0.0 | 2.6 | 0.00 | 0.00 | 0.00 | 56 | 1012.9 |
| 20260510030211 | 44 | 279 | 0.9 | 2.6 | 0.00 | 0.00 | 0.00 | 50 | 1012.7 |
| 20260510030005 | 44 | 274 | 0.9 | 2.6 | 0.00 | 0.00 | 0.00 | 50 | 1012.7 |
| 20260510025005 | 45 | 328 | 0.9 | 2.6 | 0.00 | 0.00 | 0.00 | 51 | 1012.6 |
| 20260510024710 | 45 | 328 | 0.0 | 1.7 | 0.00 | 0.00 | 0.00 | 50 | 1012.6 |
| 20260510024005 | 45 | 307 | 0.9 | 6.1 | 0.00 | 0.00 | 0.00 | 53 | 1012.5 |
| 20260510023209 | 45 | 336 | 2.6 | 6.1 | 0.00 | 0.00 | 0.00 | 52 | 1012.3 |
| 20260510022005 | 45 | 288 | 0.0 | 6.1 | 0.00 | 0.00 | 0.00 | 52 | 1012.2 |
| 20260510021709 | 45 | 301 | 0.9 | 2.6 | 0.00 | 0.00 | 0.00 | 50 | 1012.2 |
| 20260510021005 | 45 | 328 | 0.9 | 4.3 | 0.00 | 0.00 | 0.00 | 49 | 1012.1 |
| 20260510020210 | 45 | 306 | 1.7 | 4.3 | 0.00 | 0.00 | 0.00 | 50 | 1011.9 |
| 20260510020005 | 45 | 38 | 1.7 | 5.2 | 0.00 | 0.00 | 0.00 | 51 | 1011.9 |
| 20260510015004 | 46 | 49 | 0.0 | 2.6 | 0.00 | 0.00 | 0.00 | 48 | 1011.8 |
| 20260510014710 | 46 | 57 | 0.9 | 0.9 | 0.00 | 0.00 | 0.00 | 48 | 1011.8 |
| 20260510014005 | 46 | 296 | 0.9 | 5.2 | 0.00 | 0.00 | 0.00 | 48 | 1011.6 |
| 20260510013209 | 47 | 16 | 1.7 | 2.6 | 0.00 | 0.00 | 0.00 | 46 | 1011.3 |
| 20260510013004 | 47 | 20 | 0.9 | 6.1 | 0.00 | 0.00 | 0.00 | 46 | 1011.3 |
| 20260510012004 | 47 | 28 | 1.7 | 7.0 | 0.00 | 0.00 | 0.00 | 45 | 1011.0 |
| 20260510011710 | 47 | 27 | 1.7 | 2.6 | 0.00 | 0.00 | 0.00 | 49 | 1011.0 |
| 20260510011005 | 48 | 39 | 1.7 | 8.7 | 0.00 | 0.00 | 0.00 | 45 | 1010.8 |
| 20260510010209 | 48 | 354 | 2.6 | 7.0 | 0.00 | 0.00 | 0.00 | 45 | 1010.6 |
| 20260510010005 | 48 | 11 | 1.7 | 11.3 | 0.00 | 0.00 | 0.00 | 45 | 1010.7 |
| 20260510005005 | 49 | 325 | 3.5 | 11.3 | 0.00 | 0.00 | 0.00 | 42 | 1010.3 |
| 20260510004709 | 49 | 9 | 0.9 | 2.6 | 0.00 | 0.00 | 0.00 | 43 | 1010.3 |
| 20260510004004 | 49 | 351 | 2.6 | 10.4 | 0.00 | 0.00 | 0.00 | 41 | 1010.1 |
| 20260510003210 | 50 | 300 | 2.6 | 4.3 | 0.00 | 0.00 | 0.00 | 41 | 1009.9 |
| 20260510002004 | 50 | 45 | 3.5 | 7.8 | 0.00 | 0.00 | 0.00 | 40 | 1009.7 |
| 20260510001709 | 50 | 26 | 4.3 | 6.1 | 0.00 | 0.00 | 0.00 | 41 | 1009.5 |
| 20260510001004 | 50 | 350 | 5.2 | 10.4 | 0.00 | 0.00 | 0.00 | 40 | 1009.4 |
| 20260510000211 | 50 | 355 | 0.0 | 0.9 | 0.00 | 0.00 | 0.00 | 41 | 1009.3 |
| 20260509234710 | 50 | 30 | 0.9 | 0.9 | 0.00 | 0.00 | 0.00 | 42 | 1009.2 |
| 20260509234005 | 50 | 330 | 1.7 | 8.7 | 0.00 | 0.00 | 0.00 | 42 | 1009.2 |
| 20260509233209 | 50 | 39 | 0.9 | 4.3 | 0.00 | 0.00 | 0.00 | 42 | 1009.1 |
| 20260509233004 | 50 | 336 | 1.7 | 10.4 | 0.00 | 0.00 | 0.00 | 41 | 1009.1 |
| 20260509232005 | 50 | 293 | 0.9 | 5.2 | 0.00 | 0.00 | 0.00 | 41 | 1009.1 |
| 20260509231710 | 50 | 32 | 1.7 | 1.7 | 0.00 | 0.00 | 0.00 | 42 | 1009.0 |
| 20260509231004 | 50 | 46 | 1.7 | 7.0 | 0.00 | 0.00 | 0.00 | 42 | 1008.9 |
| 20260509230210 | 50 | 326 | 0.9 | 2.6 | 0.00 | 0.00 | 0.00 | 41 | 1008.8 |
| 20260509230005 | 50 | 327 | 3.5 | 13.0 | 0.00 | 0.00 | 0.00 | 40 | 1008.8 |
| 20260509225005 | 50 | 248 | 2.6 | 8.7 | 0.00 | 0.00 | 0.00 | 41 | 1008.8 |
| 20260509224710 | 50 | 311 | 1.7 | 6.1 | 0.00 | 0.00 | 0.00 | 40 | 1008.8 |
| 20260509224004 | 50 | 321 | 4.3 | 10.4 | 0.00 | 0.00 | 0.00 | 40 | 1008.8 |
| 20260509223209 | 50 | 347 | 2.6 | 7.0 | 0.00 | 0.00 | 0.00 | 40 | 1008.7 |
| 20260509222004 | 51 | 280 | 4.3 | 12.2 | 0.00 | 0.00 | 0.00 | 41 | 1008.4 |
| 20260509221710 | 51 | 301 | 6.1 | 10.4 | 0.00 | 0.00 | 0.00 | 39 | 1008.4 |
| 20260509221004 | 51 | 13 | 2.6 | 14.8 | 0.00 | 0.00 | 0.00 | 41 | 1008.4 |
| 20260509220209 | 50 | 46 | 0.9 | 1.7 | 0.00 | 0.00 | 0.00 | 42 | 1008.5 |
| 20260509220004 | 50 | 1 | 2.6 | 8.7 | 0.00 | 0.00 | 0.00 | 39 | 1008.4 |
| 20260509215004 | 50 | 309 | 5.2 | 10.4 | 0.00 | 0.00 | 0.00 | 38 | 1008.3 |
| 20260509214710 | 50 | 106 | 2.6 | 4.3 | 0.00 | 0.00 | 0.00 | 37 | 1008.3 |